Hourly Weather Stara Zagora

Today, 30 September, Wednesday

Time Temperature Precipitation Wind Pressure Humidity
00:00 +15°C° 0 mm 2 mps 738 mmHg 72%
01:00 +14°C° 0 mm 2 mps 739 mmHg 73%
02:00 +14°C° 0 mm 2 mps 738 mmHg 77%
03:00 +13°C° 0 mm 2 mps 738 mmHg 77%
04:00 +13°C° 0 mm 2 mps 738 mmHg 77%
05:00 +12°C° 0 mm 2 mps 738 mmHg 77%
06:00 +12°C° 0 mm 3 mps 738 mmHg 72%
07:00 +13°C° 0 mm 3 mps 738 mmHg 67%
08:00 +14°C° 0 mm 3 mps 738 mmHg 63%
09:00 +16°C° 0 mm 3 mps 738 mmHg 56%
10:00 +18°C° 0 mm 3 mps 738 mmHg 49%
11:00 +19°C° 0 mm 4 mps 738 mmHg 43%
12:00 +20°C° 0 mm 4 mps 737 mmHg 41%
13:00 +20°C° 0 mm 4 mps 737 mmHg 38%
14:00 +21°C° 0 mm 4 mps 736 mmHg 36%
15:00 +21°C° 0 mm 3 mps 736 mmHg 37%
16:00 +20°C° 0 mm 3 mps 736 mmHg 38%
17:00 +20°C° 0 mm 3 mps 736 mmHg 39%
18:00 +19°C° 0 mm 2 mps 736 mmHg 43%
19:00 +18°C° 0 mm 2 mps 737 mmHg 48%
20:00 +16°C° 0 mm 2 mps 737 mmHg 52%
21:00 +16°C° 0 mm 1 mps 737 mmHg 55%
22:00 +15°C° 0 mm 1 mps 737 mmHg 57%
23:00 +15°C° 0 mm 1 mps 736 mmHg 60%

Tomorrow, 1 October, Thursday

Time Temperature Precipitation Wind Pressure Humidity
00:00 +14°C° 0 mm 1 mps 736 mmHg 61%
01:00 +14°C° 0 mm 2 mps 736 mmHg 61%
02:00 +14°C° 0 mm 2 mps 736 mmHg 62%
03:00 +14°C° 0 mm 1 mps 736 mmHg 64%
04:00 +14°C° 0 mm 1 mps 736 mmHg 65%
05:00 +14°C° 0 mm 1 mps 735 mmHg 66%
06:00 +14°C° 0 mm 1 mps 735 mmHg 64%
07:00 +15°C° 0 mm 1 mps 736 mmHg 61%
08:00 +16°C° 0 mm 1 mps 736 mmHg 58%
09:00 +18°C° 0 mm 1 mps 736 mmHg 52%
10:00 +19°C° 0 mm 2 mps 736 mmHg 46%
11:00 +21°C° 0 mm 2 mps 736 mmHg 40%
12:00 +23°C° 0 mm 2 mps 736 mmHg 39%
13:00 +23°C° 0 mm 2 mps 736 mmHg 37%
14:00 +24°C° 0 mm 2 mps 736 mmHg 36%
15:00 +23°C° 0 mm 2 mps 736 mmHg 40%
16:00 +21°C° 0 mm 2 mps 736 mmHg 44%
17:00 +20°C° 0 mm 2 mps 736 mmHg 47%
18:00 +19°C° 0 mm 2 mps 736 mmHg 52%
19:00 +18°C° 0 mm 2 mps 736 mmHg 57%
20:00 +18°C° 0 mm 1 mps 737 mmHg 62%
21:00 +18°C° 0 mm 1 mps 737 mmHg 63%
22:00 +16°C° 0 mm 1 mps 737 mmHg 64%
23:00 +16°C° 0 mm 1 mps 737 mmHg 64%

Day after tomorrow, 2 October, Friday

Time Temperature Precipitation Wind Pressure Humidity
00:00 +16°C° 0 mm 1 mps 737 mmHg 67%
01:00 +15°C° 0 mm 1 mps 737 mmHg 69%
02:00 +14°C° 0 mm 1 mps 737 mmHg 72%
03:00 +14°C° 0 mm 1 mps 738 mmHg 74%
04:00 +14°C° 0 mm 1 mps 738 mmHg 75%
05:00 +13°C° 0 mm 1 mps 738 mmHg 76%
06:00 +14°C° 0 mm 0 mps 738 mmHg 72%
07:00 +15°C° 0 mm 0 mps 738 mmHg 68%
08:00 +16°C° 0 mm 0 mps 739 mmHg 64%
09:00 +20°C° 0 mm 1 mps 739 mmHg 57%
10:00 +21°C° 0 mm 1 mps 739 mmHg 50%
11:00 +23°C° 0 mm 2 mps 739 mmHg 43%
12:00 +24°C° 0 mm 2 mps 739 mmHg 40%
13:00 +25°C° 0 mm 2 mps 739 mmHg 36%
14:00 +27°C° 0 mm 2 mps 739 mmHg 33%
15:00 +26°C° 0 mm 2 mps 739 mmHg 35%
16:00 +26°C° 0 mm 2 mps 739 mmHg 37%
17:00 +26°C° 0 mm 3 mps 739 mmHg 40%
18:00 +24°C° 0 mm 2 mps 740 mmHg 46%
19:00 +21°C° 0 mm 2 mps 740 mmHg 53%
20:00 +19°C° 0 mm 2 mps 741 mmHg 59%
21:00 +20°C° 0 mm 1 mps 741 mmHg 63%
22:00 +19°C° 0 mm 1 mps 741 mmHg 67%
23:00 +18°C° 0 mm 1 mps 741 mmHg 71%

3 October, Saturday

Time Temperature Precipitation Wind Pressure Humidity
00:00 +18°C° 0 mm 1 mps 741 mmHg 74%
01:00 +16°C° 0 mm 1 mps 741 mmHg 76%
02:00 +16°C° 0 mm 1 mps 741 mmHg 78%
03:00 +16°C° 0 mm 1 mps 741 mmHg 79%
04:00 +15°C° 0 mm 1 mps 741 mmHg 81%
05:00 +14°C° 0 mm 0 mps 741 mmHg 82%
06:00 +15°C° 0 mm 0 mps 741 mmHg 78%
07:00 +16°C° 0 mm 0 mps 741 mmHg 74%
08:00 +19°C° 0 mm 1 mps 741 mmHg 70%
09:00 +21°C° 0 mm 1 mps 741 mmHg 63%
10:00 +23°C° 0 mm 1 mps 741 mmHg 55%
11:00 +25°C° 0 mm 2 mps 742 mmHg 48%
12:00 +26°C° 0 mm 2 mps 741 mmHg 43%
13:00 +27°C° 0 mm 2 mps 741 mmHg 39%
14:00 +28°C° 0 mm 2 mps 741 mmHg 34%
15:00 +28°C° 0 mm 2 mps 741 mmHg 35%
16:00 +28°C° 0 mm 2 mps 741 mmHg 37%
17:00 +27°C° 0 mm 2 mps 740 mmHg 38%
18:00 +25°C° 0 mm 2 mps 741 mmHg 43%
19:00 +23°C° 0 mm 1 mps 741 mmHg 48%
20:00 +22°C° 0 mm 1 mps 741 mmHg 54%
21:00 +21°C° 0 mm 1 mps 741 mmHg 57%
22:00 +20°C° 0 mm 1 mps 741 mmHg 59%
23:00 +20°C° 0 mm 1 mps 741 mmHg 62%

4 October, Sunday

Time Temperature Precipitation Wind Pressure Humidity
00:00 +19°C° 0 mm 1 mps 741 mmHg 65%
01:00 +19°C° 0 mm 1 mps 741 mmHg 68%
02:00 +16°C° 0 mm 0 mps 741 mmHg 70%
03:00 +16°C° 0 mm 0 mps 741 mmHg 73%
04:00 +15°C° 0 mm 0 mps 741 mmHg 76%
05:00 +15°C° 0 mm 0 mps 740 mmHg 79%
06:00 +16°C° 0 mm 0 mps 741 mmHg 75%
07:00 +19°C° 0 mm 1 mps 741 mmHg 71%
08:00 +20°C° 0 mm 1 mps 741 mmHg 68%
09:00 +22°C° 0 mm 1 mps 741 mmHg 60%
10:00 +24°C° 0 mm 1 mps 741 mmHg 52%
11:00 +27°C° 0 mm 2 mps 741 mmHg 45%
12:00 +28°C° 0 mm 2 mps 741 mmHg 41%
13:00 +29°C° 0 mm 2 mps 741 mmHg 37%
14:00 +31°C° 0 mm 2 mps 741 mmHg 33%
15:00 +30°C° 0 mm 2 mps 741 mmHg 35%
16:00 +30°C° 0 mm 2 mps 740 mmHg 37%
17:00 +29°C° 0 mm 2 mps 740 mmHg 39%
18:00 +27°C° 0 mm 2 mps 740 mmHg 42%
19:00 +26°C° 0 mm 2 mps 740 mmHg 45%
20:00 +25°C° 0 mm 2 mps 740 mmHg 48%
21:00 +24°C° 0 mm 2 mps 740 mmHg 50%
22:00 +23°C° 0 mm 2 mps 740 mmHg 51%
23:00 +23°C° 0 mm 2 mps 740 mmHg 53%

5 October, Monday

Time Temperature Precipitation Wind Pressure Humidity
00:00 +21°C° 0 mm 2 mps 740 mmHg 56%
01:00 +21°C° 0 mm 2 mps 740 mmHg 58%
02:00 +20°C° 0 mm 2 mps 740 mmHg 61%
03:00 +21°C° 0 mm 1 mps 740 mmHg 63%
04:00 +20°C° 0 mm 1 mps 740 mmHg 65%
05:00 +20°C° 0 mm 1 mps 739 mmHg 67%
06:00 +21°C° 0 mm 1 mps 740 mmHg 64%
07:00 +22°C° 0 mm 1 mps 740 mmHg 60%
08:00 +23°C° 0 mm 1 mps 740 mmHg 57%
09:00 +25°C° 0 mm 1 mps 740 mmHg 50%
10:00 +27°C° 0 mm 1 mps 740 mmHg 44%
11:00 +29°C° 0 mm 1 mps 741 mmHg 38%
12:00 +31°C° 0 mm 1 mps 740 mmHg 34%
13:00 +32°C° 0 mm 2 mps 740 mmHg 31%
14:00 +34°C° 0 mm 2 mps 740 mmHg 28%
15:00 +32°C° 0 mm 2 mps 740 mmHg 31%
16:00 +31°C° 0 mm 2 mps 740 mmHg 33%
17:00 +30°C° 0 mm 2 mps 740 mmHg 36%
18:00 +29°C° 0 mm 2 mps 740 mmHg 38%
19:00 +28°C° 0 mm 2 mps 740 mmHg 40%
20:00 +27°C° 0 mm 1 mps 740 mmHg 42%
21:00 +26°C° 0 mm 1 mps 739 mmHg 43%
22:00 +26°C° 0 mm 2 mps 739 mmHg 45%
23:00 +25°C° 0 mm 2 mps 739 mmHg 46%
Show more